Home > Time Zones > World Clock > Weather > Spain > Palma > Past weeks

Flag for Spain Weather past 2 weeks in Palma, Majorca, Spain

Now
70 °F

Passing clouds.


Feels Like: 70 °F
Forecast: 56 / 70 °F
Wind: 12 mph from Northeast

Location: Palma De Mallorca / Son San Juan

Current Time: Oct 22, 2014 at 8:58:29 AM

Latest Report: Oct 22, 2014 at 8:30 AM


Visibility: N/A

Pressure: 30.12 "Hg

Humidity: 78%

Dew point: 63 °F

Location of PalmaLocation

Historic Weather in Palma — Graph

°F

Palma temperature yesterday

Maximum temperature yesterday: 90 °F (at 2:00 PM)
Minimum temperature yesterday: 55 °F (at 5:00 AM)
Average temperature yesterday: 70 °F

Past Weeks' High & Low Weather Summary

 TemperatureHumidityPressure
High90 °F (Oct 19, 1:00 PM)100% (Oct 7, 8:00 AM)30.24 "Hg (Oct 7, 8:00 AM)
Low55 °F (Oct 15, 6:30 AM)27% (Oct 19, 1:00 PM)29.74 "Hg (Oct 14, 4:00 PM)
Average72 °F79%29.98 "Hg
* Reported Oct 7 8:00 AM — Oct 22 8:00 AM, Palma, Weather by CustomWeather, © 2014

Note: Actual official high and low records may vary slightly from our data, if they occured in-between our weather recording intervals... More about our weather records

Advertising

Palma weather history for previous 24 hours

 ConditionsComfort  
Time TempWeatherWind HumidityBarometerVisibility
8:00 AM
Oct 22
70 °FPassing clouds.13 mph78%30.12 "HgN/A
7:30 AM70 °FPassing clouds.7 mph83%30.12 "HgN/A
7:00 AM70 °FPassing clouds.7 mph83%30.09 "HgN/A
6:30 AM70 °FPassing clouds.3 mph78%30.09 "HgN/A
6:00 AM70 °FPassing clouds.5 mph73%30.09 "HgN/A
5:00 AM73 °FPassing clouds.10 mph65%30.07 "HgN/A
4:30 AM75 °FClear.15 mph57%30.07 "Hg10 mi
4:00 AM77 °FClear.13 mph54%30.07 "Hg10 mi
3:30 AM77 °FClear.15 mph57%30.07 "Hg10 mi
3:00 AM79 °FPassing clouds.9 mph51%30.07 "HgN/A
2:30 AM79 °FPassing clouds.15 mph48%30.07 "HgN/A
2:00 AM79 °FClear.26 mph45%30.04 "Hg10 mi
1:00 AM79 °FClear.17 mph45%30.07 "Hg10 mi
12:30 AM81 °FClear.15 mph42%30.07 "Hg10 mi
12:00 AM79 °FClear.1 mph45%30.07 "Hg10 mi
11:30 PM
Oct 21
66 °FClear.2 mph94%30.09 "Hg10 mi
10:30 PM72 °FPassing clouds.6 mph83%30.09 "HgN/A
10:00 PM75 °FPassing clouds.5 mph78%30.09 "HgN/A
9:30 PM73 °FClear.5 mph83%30.09 "Hg10 mi
9:00 PM75 °FClear.3 mph74%30.09 "Hg10 mi
8:30 PM75 °FClear.1 mph69%30.09 "Hg10 mi
8:00 PM73 °FPassing clouds.3 mph83%30.09 "HgN/A
7:30 PM75 °FSunny.9 mph78%30.09 "Hg10 mi
7:00 PM77 °FSunny.10 mph65%30.09 "Hg10 mi
6:30 PM81 °FSunny.6 mph42%30.09 "Hg10 mi
6:00 PM82 °FSunny.9 mph40%30.09 "Hg10 mi
5:30 PM84 °FPassing clouds.15 mph37%30.09 "HgN/A
5:00 PM84 °FPassing clouds.13 mph37%30.09 "HgN/A
4:30 PM84 °FPassing clouds.15 mph35%30.09 "HgN/A
4:00 PM86 °FPassing clouds.16 mph33%30.07 "HgN/A
3:30 PM86 °FPassing clouds.16 mph33%30.07 "HgN/A
3:00 PM88 °FSunny.18 mph29%30.07 "Hg10 mi
2:30 PM90 °FPassing clouds.15 mph27%30.07 "HgN/A
2:00 PM90 °FPassing clouds.13 mph27%30.09 "HgN/A
1:30 PM88 °FPassing clouds.5 mph33%30.09 "HgN/A
1:00 PM82 °FPassing clouds.3 mph58%30.12 "HgN/A
12:30 PM81 °FSunny.2 mph66%30.12 "Hg10 mi
12:00 PM77 °FSunny.2 mph69%30.12 "Hg10 mi
11:30 AM77 °FSunny.2 mph69%30.12 "Hg10 mi
11:00 AM73 °FSunny.2 mph83%30.12 "Hg10 mi
10:30 AM70 °FSunny.No wind94%30.12 "Hg10 mi
10:00 AM66 °FSleet. Light fog.No wind100%30.12 "Hg5 mi
9:30 AM63 °FSleet. Cloudy.No wind100%30.12 "Hg4 mi
9:00 AM59 °FSleet. Passing clouds.No wind100%30.09 "Hg3 mi
8:30 AM57 °FSleet. Passing clouds.No wind100%30.09 "Hg3 mi
8:00 AM59 °FCool.No wind100%30.09 "Hg1 mi
Weather by CustomWeather, © 2014

See weather overviewHow to use our weather pages